Time,TemperatureF,DewpointF,PressureIn,WindDirection,WindDirectionDegrees,WindSpeedMPH,WindSpeedGustMPH,Humidity,HourlyPrecipIn,Conditions,Clouds,dailyrainin,SoftwareType,DateUTC
2013-08-04 00:00:00,65.4,62.4,29.95,NW,306,0.0,3.0,90,0.00,,---,0.00,VWS V14.01,2013-08-04 04:00:00,
2013-08-04 00:01:00,65.4,62.4,29.94,NNW,348,2.0,4.0,90,0.00,,---,0.00,VWS V14.01,2013-08-04 04:01:00,
2013-08-04 00:05:00,65.4,62.4,29.95,SW,223,3.0,3.0,90,0.00,,---,0.00,VWS V14.01,2013-08-04 04:05:00,
2013-08-04 00:06:00,65.4,62.4,29.94,NNW,348,0.0,0.0,90,0.00,,---,0.00,VWS V14.01,2013-08-04 04:06:00,
2013-08-04 00:10:00,65.4,62.7,29.95,SW,223,0.0,3.0,91,0.00,,---,0.00,VWS V14.01,2013-08-04 04:10:00,
2013-08-04 00:11:00,65.2,62.2,29.94,NE,34,3.0,5.0,90,0.00,,---,0.00,VWS V14.01,2013-08-04 04:11:00,
2013-08-04 00:15:00,65.4,62.7,29.94,SSE,165,1.0,4.0,91,0.00,,---,0.00,VWS V14.01,2013-08-04 04:15:00,
2013-08-04 00:16:00,65.7,61.7,29.94,North,5,2.0,4.0,87,0.00,,---,0.00,VWS V14.01,2013-08-04 04:16:00,
2013-08-04 00:20:00,65.5,62.5,29.94,SSE,165,2.0,2.0,90,0.00,,---,0.00,VWS V14.01,2013-08-04 04:20:00,
2013-08-04 00:21:00,66.0,62.0,29.93,NNE,12,0.0,2.0,87,0.00,,---,0.00,VWS V14.01,2013-08-04 04:21:00,
2013-08-04 00:25:00,65.5,62.5,29.94,SSE,165,0.0,2.0,90,0.00,,---,0.00,VWS V14.01,2013-08-04 04:25:00,
2013-08-04 00:26:00,66.0,61.7,29.93,NNE,12,0.0,2.0,86,0.00,,---,0.00,VWS V14.01,2013-08-04 04:26:00,
2013-08-04 00:30:00,65.5,62.5,29.94,SSE,168,1.0,3.0,90,0.00,,---,0.00,VWS V14.01,2013-08-04 04:30:00,
2013-08-04 00:31:00,65.9,61.9,29.93,NNE,13,0.0,0.0,87,0.00,,---,0.00,VWS V14.01,2013-08-04 04:31:00,
2013-08-04 00:35:00,65.5,62.5,29.94,South,171,2.0,3.0,90,0.00,,---,0.00,VWS V14.01,2013-08-04 04:35:00,
2013-08-04 00:36:00,65.7,61.4,29.94,NNE,12,0.0,0.0,86,0.00,,---,0.00,VWS V14.01,2013-08-04 04:36:00,
2013-08-04 00:40:00,65.4,62.4,29.94,South,171,4.0,4.0,90,0.00,,---,0.00,VWS V14.01,2013-08-04 04:40:00,
2013-08-04 00:41:00,65.5,61.5,29.94,NNE,12,0.0,2.0,87,0.00,,---,0.00,VWS V14.01,2013-08-04 04:41:00,
2013-08-04 00:45:00,65.4,62.4,29.94,NNW,348,0.0,4.0,90,0.00,,---,0.00,VWS V14.01,2013-08-04 04:45:00,
2013-08-04 00:46:00,65.4,61.8,29.94,NNE,17,2.0,2.0,88,0.00,,---,0.00,VWS V14.01,2013-08-04 04:46:00,
2013-08-04 00:50:00,65.2,62.2,29.94,NNW,348,2.0,3.0,90,0.00,,---,0.00,VWS V14.01,2013-08-04 04:50:00,
2013-08-04 00:51:00,65.2,61.2,29.94,North,360,0.0,2.0,87,0.00,,---,0.00,VWS V14.01,2013-08-04 04:51:00,
2013-08-04 00:55:00,65.2,61.2,29.94,North,10,2.0,4.0,87,0.00,,---,0.00,VWS V14.01,2013-08-04 04:55:00,
2013-08-04 01:00:00,66.0,61.7,29.93,North,5,0.0,4.0,86,0.00,,---,0.00,VWS V14.01,2013-08-04 05:00:00,
2013-08-04 01:01:00,65.2,61.2,29.94,NW,319,3.0,4.0,87,0.00,,---,0.00,VWS V14.01,2013-08-04 05:01:00,
2013-08-04 01:05:00,65.2,61.2,29.95,NW,321,0.0,1.0,87,0.00,,---,0.00,VWS V14.01,2013-08-04 05:05:00,
2013-08-04 01:10:00,65.9,61.6,29.93,NNE,13,0.0,2.0,86,0.00,,---,0.00,VWS V14.01,2013-08-04 05:10:00,
2013-08-04 01:11:00,65.1,61.1,29.95,NW,321,0.0,0.0,87,0.00,,---,0.00,VWS V14.01,2013-08-04 05:11:00,
2013-08-04 01:15:00,64.9,60.9,29.95,NW,321,0.0,0.0,87,0.00,,---,0.00,VWS V14.01,2013-08-04 05:15:00,
2013-08-04 01:20:00,65.7,61.7,29.94,NNE,12,0.0,0.0,87,0.00,,---,0.00,VWS V14.01,2013-08-04 05:20:00,
2013-08-04 01:21:00,64.7,61.1,29.94,NW,321,0.0,3.0,88,0.00,,---,0.00,VWS V14.01,2013-08-04 05:21:00,
2013-08-04 01:25:00,65.5,61.5,29.94,NNE,12,0.0,2.0,87,0.00,,---,0.00,VWS V14.01,2013-08-04 05:25:00,
2013-08-04 01:26:00,64.4,61.1,29.94,NW,321,2.0,2.0,89,0.00,,---,0.00,VWS V14.01,2013-08-04 05:26:00,
2013-08-04 01:30:00,64.1,61.1,29.94,NW,315,5.0,5.0,90,0.00,,---,0.00,VWS V14.01,2013-08-04 05:30:00,
2013-08-04 01:35:00,65.2,60.9,29.94,North,9,4.0,5.0,86,0.00,,---,0.00,VWS V14.01,2013-08-04 05:35:00,
2013-08-04 01:36:00,63.8,60.8,29.94,North,10,4.0,4.0,90,0.00,,---,0.00,VWS V14.01,2013-08-04 05:36:00,
2013-08-04 01:40:00,65.2,60.9,29.94,North,9,0.0,4.0,86,0.00,,---,0.00,VWS V14.01,2013-08-04 05:40:00,
2013-08-04 01:41:00,63.6,60.6,29.94,West,267,3.0,6.0,90,0.00,,---,0.00,VWS V14.01,2013-08-04 05:41:00,
2013-08-04 01:45:00,65.2,61.2,29.95,NW,321,0.0,4.0,87,0.00,,---,0.00,VWS V14.01,2013-08-04 05:45:00,
2013-08-04 01:46:00,63.6,60.6,29.94,North,5,2.0,4.0,90,0.00,,---,0.00,VWS V14.01,2013-08-04 05:46:00,
2013-08-04 01:50:00,63.8,60.5,29.94,NNE,14,1.0,4.0,89,0.00,,---,0.00,VWS V14.01,2013-08-04 05:50:00,
2013-08-04 01:55:00,65.1,61.1,29.95,NW,321,0.0,0.0,87,0.00,,---,0.00,VWS V14.01,2013-08-04 05:55:00,
2013-08-04 01:56:00,63.9,60.3,29.94,NNE,15,3.0,3.0,88,0.00,,---,0.00,VWS V14.01,2013-08-04 05:56:00,
2013-08-04 02:00:00,64.9,61.3,29.94,NW,321,1.0,3.0,88,0.00,,---,0.00,VWS V14.01,2013-08-04 06:00:00,
2013-08-04 02:01:00,64.3,60.0,29.94,North,9,3.0,7.0,86,0.00,,---,0.00,VWS V14.01,2013-08-04 06:01:00,
2013-08-04 02:05:00,64.6,61.3,29.94,NW,321,1.0,3.0,89,0.00,,---,0.00,VWS V14.01,2013-08-04 06:05:00,
2013-08-04 02:06:00,65.2,59.6,29.94,NNE,26,5.0,7.0,82,0.00,,---,0.00,VWS V14.01,2013-08-04 06:06:00,
2013-08-04 02:10:00,64.3,61.0,29.94,NW,312,3.0,3.0,89,0.00,,---,0.00,VWS V14.01,2013-08-04 06:10:00,
2013-08-04 02:11:00,66.5,59.8,29.94,NNE,21,6.0,12.0,79,0.00,,---,0.00,VWS V14.01,2013-08-04 06:11:00,
2013-08-04 02:15:00,63.9,60.9,29.94,NNW,340,2.0,6.0,90,0.00,,---,0.00,VWS V14.01,2013-08-04 06:15:00,
2013-08-04 02:16:00,67.4,60.0,29.94,NNE,25,4.0,8.0,77,0.00,,---,0.00,VWS V14.01,2013-08-04 06:16:00,
2013-08-04 02:20:00,67.7,59.9,29.93,NNE,22,7.0,9.0,76,0.00,,---,0.00,VWS V14.01,2013-08-04 06:20:00,
2013-08-04 02:25:00,63.6,60.6,29.94,WNW,286,0.0,6.0,90,0.00,,---,0.00,VWS V14.01,2013-08-04 06:25:00,
2013-08-04 02:26:00,67.9,60.1,29.93,North,9,5.0,7.0,76,0.00,,---,0.00,VWS V14.01,2013-08-04 06:26:00,
2013-08-04 02:30:00,63.6,60.3,29.94,North,11,4.0,5.0,89,0.00,,---,0.00,VWS V14.01,2013-08-04 06:30:00,
2013-08-04 02:31:00,67.9,60.1,29.93,NE,46,5.0,6.0,76,0.00,,---,0.00,VWS V14.01,2013-08-04 06:31:00,
2013-08-04 02:35:00,67.7,59.9,29.92,NNE,30,4.0,6.0,76,0.00,,---,0.00,VWS V14.01,2013-08-04 06:35:00,
2013-08-04 02:40:00,67.9,60.1,29.92,NE,34,4.0,9.0,76,0.00,,---,0.00,VWS V14.01,2013-08-04 06:40:00,
2013-08-04 02:45:00,67.9,59.7,29.92,NNE,17,5.0,9.0,75,0.00,,---,0.00,VWS V14.01,2013-08-04 06:45:00,
2013-08-04 02:50:00,68.2,59.6,29.92,NNW,331,10.0,10.0,74,0.00,,---,0.00,VWS V14.01,2013-08-04 06:50:00,
2013-08-04 02:55:00,68.5,59.9,29.92,South,171,6.0,7.0,74,0.00,,---,0.00,VWS V14.01,2013-08-04 06:55:00,
2013-08-04 03:00:00,68.0,60.5,29.92,SSE,156,0.0,1.0,77,0.00,,---,0.00,VWS V14.01,2013-08-04 07:00:00,
2013-08-04 03:05:00,67.9,60.4,29.92,West,279,2.0,3.0,77,0.00,,---,0.00,VWS V14.01,2013-08-04 07:05:00,
2013-08-04 03:10:00,67.4,60.3,29.92,SE,127,0.0,2.0,78,0.00,,---,0.00,VWS V14.01,2013-08-04 07:10:00,
2013-08-04 03:15:00,67.0,59.9,29.92,SW,216,0.0,4.0,78,0.00,,---,0.00,VWS V14.01,2013-08-04 07:15:00,
2013-08-04 03:20:00,66.7,60.0,29.92,East,83,0.0,2.0,79,0.00,,---,0.00,VWS V14.01,2013-08-04 07:20:00,
2013-08-04 03:25:00,66.5,60.2,29.92,ESE,115,2.0,2.0,80,0.00,,---,0.00,VWS V14.01,2013-08-04 07:25:00,
2013-08-04 03:30:00,66.4,59.7,29.92,NE,53,3.0,7.0,79,0.00,,---,0.00,VWS V14.01,2013-08-04 07:30:00,
2013-08-04 03:35:00,66.7,59.3,29.92,NNE,15,3.0,6.0,77,0.00,,---,0.00,VWS V14.01,2013-08-04 07:35:00,
2013-08-04 03:40:00,67.4,59.6,29.92,NNE,22,6.0,11.0,76,0.00,,---,0.00,VWS V14.01,2013-08-04 07:40:00,
2013-08-04 03:45:00,68.0,59.8,29.92,North,355,4.0,10.0,75,0.00,,---,0.00,VWS V14.01,2013-08-04 07:45:00,
2013-08-04 03:50:00,68.4,59.8,29.92,NNE,33,2.0,4.0,74,0.00,,---,0.00,VWS V14.01,2013-08-04 07:50:00,
2013-08-04 03:55:00,68.4,59.8,29.92,NNE,17,2.0,4.0,74,0.00,,---,0.00,VWS V14.01,2013-08-04 07:55:00,
2013-08-04 04:00:00,68.4,59.8,29.92,North,355,0.0,5.0,74,0.00,,---,0.00,VWS V14.01,2013-08-04 08:00:00,
2013-08-04 04:05:00,68.2,59.6,29.92,NNW,342,1.0,6.0,74,0.00,,---,0.00,VWS V14.01,2013-08-04 08:05:00,
2013-08-04 04:10:00,68.2,59.6,29.92,North,355,4.0,4.0,74,0.00,,---,0.00,VWS V14.01,2013-08-04 08:10:00,
2013-08-04 04:15:00,68.2,60.0,29.92,NNE,13,2.0,5.0,75,0.00,,---,0.00,VWS V14.01,2013-08-04 08:15:00,
2013-08-04 04:20:00,68.2,60.0,29.92,North,350,2.0,5.0,75,0.00,,---,0.00,VWS V14.01,2013-08-04 08:20:00,
2013-08-04 04:25:00,68.2,60.0,29.92,NE,51,4.0,7.0,75,0.00,,---,0.00,VWS V14.01,2013-08-04 08:25:00,
2013-08-04 04:30:00,68.2,60.0,29.92,ENE,63,3.0,4.0,75,0.00,,---,0.00,VWS V14.01,2013-08-04 08:30:00,
2013-08-04 04:35:00,68.0,60.2,29.92,ENE,65,2.0,4.0,76,0.00,,---,0.00,VWS V14.01,2013-08-04 08:35:00,
2013-08-04 04:40:00,67.9,60.1,29.92,ENE,70,3.0,3.0,76,0.00,,---,0.00,VWS V14.01,2013-08-04 08:40:00,
2013-08-04 04:45:00,67.9,60.1,29.92,ENE,63,3.0,4.0,76,0.00,,---,0.00,VWS V14.01,2013-08-04 08:45:00,
2013-08-04 04:50:00,67.7,59.9,29.92,ENE,65,0.0,1.0,76,0.00,,---,0.00,VWS V14.01,2013-08-04 08:50:00,
2013-08-04 04:55:00,67.5,59.7,29.92,North,350,0.0,0.0,76,0.00,,---,0.00,VWS V14.01,2013-08-04 08:55:00,
2013-08-04 05:00:00,67.4,60.0,29.92,NNE,21,3.0,5.0,77,0.00,,---,0.00,VWS V14.01,2013-08-04 09:00:00,
2013-08-04 05:05:00,67.2,59.8,29.92,NE,50,1.0,5.0,77,0.00,,---,0.00,VWS V14.01,2013-08-04 09:05:00,
2013-08-04 05:10:00,67.2,59.8,29.92,NW,325,5.0,5.0,77,0.00,,---,0.00,VWS V14.01,2013-08-04 09:10:00,
2013-08-04 05:15:00,67.2,59.8,29.92,North,5,3.0,6.0,77,0.00,,---,0.00,VWS V14.01,2013-08-04 09:15:00,
2013-08-04 05:20:00,67.4,60.0,29.92,North,10,3.0,3.0,77,0.00,,---,0.00,VWS V14.01,2013-08-04 09:20:00,
2013-08-04 05:25:00,67.4,60.0,29.92,NNE,15,0.0,0.0,77,0.00,,---,0.00,VWS V14.01,2013-08-04 09:25:00,
2013-08-04 05:30:00,67.2,59.8,29.92,North,351,2.0,2.0,77,0.00,,---,0.00,VWS V14.01,2013-08-04 09:30:00,
2013-08-04 05:35:00,67.0,59.9,29.93,NW,317,5.0,7.0,78,0.00,,---,0.00,VWS V14.01,2013-08-04 09:35:00,
2013-08-04 05:40:00,67.0,59.9,29.93,NNW,342,10.0,14.0,78,0.00,,---,0.00,VWS V14.01,2013-08-04 09:40:00,
2013-08-04 05:45:00,67.2,59.8,29.93,North,355,4.0,7.0,77,0.00,,---,0.00,VWS V14.01,2013-08-04 09:45:00,
2013-08-04 05:50:00,67.4,60.0,29.93,North,360,2.0,12.0,77,0.00,,---,0.00,VWS V14.01,2013-08-04 09:50:00,
2013-08-04 05:55:00,67.4,60.0,29.93,NW,304,10.0,10.0,77,0.00,,---,0.00,VWS V14.01,2013-08-04 09:55:00,
2013-08-04 06:00:00,67.4,59.6,29.93,NNW,333,5.0,10.0,76,0.00,,---,0.00,VWS V14.01,2013-08-04 10:00:00,
2013-08-04 06:05:00,67.4,59.2,29.94,NNE,17,6.0,13.0,75,0.00,,---,0.00,VWS V14.01,2013-08-04 10:05:00,
2013-08-04 06:10:00,67.5,58.9,29.94,NNE,17,4.0,11.0,74,0.00,,---,0.00,VWS V14.01,2013-08-04 10:10:00,
2013-08-04 06:15:00,67.5,58.5,29.94,NW,323,8.0,14.0,73,0.00,,---,0.00,VWS V14.01,2013-08-04 10:15:00,
2013-08-04 06:20:00,67.5,58.2,29.94,North,5,12.0,12.0,72,0.00,,---,0.00,VWS V14.01,2013-08-04 10:20:00,
2013-08-04 06:25:00,67.5,58.2,29.94,North,5,12.0,12.0,72,0.00,,---,0.00,VWS V14.01,2013-08-04 10:25:00,
2013-08-04 06:30:00,67.7,58.4,29.94,NW,322,11.0,11.0,72,0.00,,---,0.00,VWS V14.01,2013-08-04 10:30:00,
2013-08-04 06:35:00,67.5,58.2,29.95,NW,321,6.0,9.0,72,0.00,,---,0.00,VWS V14.01,2013-08-04 10:35:00,
2013-08-04 06:40:00,67.5,58.5,29.95,NW,304,10.0,10.0,73,0.00,,---,0.00,VWS V14.01,2013-08-04 10:40:00,
2013-08-04 06:45:00,67.5,58.5,29.95,NW,313,6.0,10.0,73,0.00,,---,0.00,VWS V14.01,2013-08-04 10:45:00,
2013-08-04 06:50:00,67.5,58.5,29.96,NW,324,10.0,10.0,73,0.00,,---,0.00,VWS V14.01,2013-08-04 10:50:00,
2013-08-04 06:55:00,67.5,58.2,29.96,North,5,5.0,10.0,72,0.00,,---,0.00,VWS V14.01,2013-08-04 10:55:00,
2013-08-04 07:00:00,67.7,58.7,29.96,NNW,342,3.0,5.0,73,0.00,,---,0.00,VWS V14.01,2013-08-04 11:00:00,
2013-08-04 07:05:00,67.9,58.9,29.96,North,355,6.0,6.0,73,0.00,,---,0.00,VWS V14.01,2013-08-04 11:05:00,
2013-08-04 07:10:00,67.9,58.5,29.96,North,11,5.0,6.0,72,0.00,,---,0.00,VWS V14.01,2013-08-04 11:10:00,
2013-08-04 07:15:00,68.0,59.0,29.96,NNW,340,2.0,5.0,73,0.00,,---,0.00,VWS V14.01,2013-08-04 11:15:00,
2013-08-04 07:20:00,68.0,59.0,29.97,NNW,331,1.0,4.0,73,0.00,,---,0.00,VWS V14.01,2013-08-04 11:20:00,
2013-08-04 07:25:00,68.2,59.2,29.97,NNW,335,2.0,5.0,73,0.00,,---,0.00,VWS V14.01,2013-08-04 11:25:00,
2013-08-04 07:30:00,68.2,59.6,29.97,WNW,303,4.0,5.0,74,0.00,,---,0.00,VWS V14.01,2013-08-04 11:30:00,
2013-08-04 07:35:00,68.4,59.8,29.97,NW,321,3.0,4.0,74,0.00,,---,0.00,VWS V14.01,2013-08-04 11:35:00,
2013-08-04 07:40:00,68.4,58.6,29.97,North,5,2.0,6.0,71,0.01,,---,0.01,VWS V14.01,2013-08-04 11:40:00,
2013-08-04 07:45:00,68.5,59.5,29.97,NW,323,2.0,4.0,73,0.01,,---,0.01,VWS V14.01,2013-08-04 11:45:00,
2013-08-04 07:50:00,68.9,59.5,29.98,NNW,343,0.0,1.0,72,0.01,,---,0.01,VWS V14.01,2013-08-04 11:50:00,
2013-08-04 07:55:00,69.0,60.0,29.98,NNW,337,0.0,5.0,73,0.01,,---,0.01,VWS V14.01,2013-08-04 11:55:00,
2013-08-04 08:00:00,69.4,59.6,29.98,NW,306,3.0,6.0,71,0.01,,---,0.01,VWS V14.01,2013-08-04 12:00:00,
2013-08-04 08:05:00,69.7,59.9,29.97,NW,313,2.0,2.0,71,0.01,,---,0.01,VWS V14.01,2013-08-04 12:05:00,
2013-08-04 08:10:00,69.9,59.7,29.97,NW,308,1.0,4.0,70,0.01,,---,0.01,VWS V14.01,2013-08-04 12:10:00,
2013-08-04 08:15:00,70.2,60.0,29.97,NW,308,0.0,2.0,70,0.01,,---,0.01,VWS V14.01,2013-08-04 12:15:00,
2013-08-04 08:20:00,70.4,57.7,29.98,WNW,302,4.0,4.0,64,0.01,,---,0.01,VWS V14.01,2013-08-04 12:20:00,
2013-08-04 08:25:00,70.9,59.0,29.98,NW,314,2.0,5.0,66,0.01,,---,0.01,VWS V14.01,2013-08-04 12:25:00,
2013-08-04 08:30:00,71.2,59.7,29.98,WNW,302,1.0,3.0,67,0.01,,---,0.01,VWS V14.01,2013-08-04 12:30:00,
2013-08-04 08:35:00,71.4,58.6,29.98,NW,310,1.0,4.0,64,0.01,,---,0.01,VWS V14.01,2013-08-04 12:35:00,
2013-08-04 08:40:00,71.8,59.4,29.98,WNW,289,4.0,4.0,65,0.00,,---,0.01,VWS V14.01,2013-08-04 12:40:00,
2013-08-04 08:45:00,71.8,57.6,29.98,NE,49,1.0,2.0,61,0.00,,---,0.01,VWS V14.01,2013-08-04 12:45:00,
2013-08-04 08:50:00,72.1,58.4,29.98,North,355,4.0,7.0,62,0.00,,---,0.01,VWS V14.01,2013-08-04 12:50:00,
2013-08-04 08:55:00,72.4,58.2,29.98,NW,312,4.0,4.0,61,0.00,,---,0.01,VWS V14.01,2013-08-04 12:55:00,
2013-08-04 08:59:00,72.6,57.5,29.98,WNW,289,7.0,9.0,59,0.00,,---,0.01,VWS V14.01,2013-08-04 12:59:00,
2013-08-04 09:00:00,70.4,57.7,29.98,WNW,301,0.0,4.0,64,0.01,,---,0.01,VWS V14.01,2013-08-04 13:00:00,
2013-08-04 09:05:00,73.0,58.3,29.99,NNW,335,3.0,5.0,60,0.00,,---,0.01,VWS V14.01,2013-08-04 13:05:00,
2013-08-04 09:10:00,73.1,58.9,29.99,North,355,2.0,4.0,61,0.00,,---,0.01,VWS V14.01,2013-08-04 13:10:00,
2013-08-04 09:15:00,73.5,59.7,29.99,NW,304,2.0,4.0,62,0.00,,---,0.01,VWS V14.01,2013-08-04 13:15:00,
2013-08-04 09:20:00,73.5,59.7,29.99,North,350,5.0,6.0,62,0.00,,---,0.01,VWS V14.01,2013-08-04 13:20:00,
2013-08-04 09:24:00,73.3,58.1,29.99,NW,308,6.0,9.0,59,0.00,,---,0.01,VWS V14.01,2013-08-04 13:24:00,
2013-08-04 09:25:00,71.8,57.6,29.98,ENE,59,1.0,4.0,61,0.00,,---,0.01,VWS V14.01,2013-08-04 13:25:00,
2013-08-04 09:29:00,73.5,58.8,29.99,NW,325,2.0,3.0,60,0.00,,---,0.01,VWS V14.01,2013-08-04 13:29:00,
2013-08-04 09:30:00,72.1,57.9,29.98,NW,322,2.0,5.0,61,0.00,,---,0.01,VWS V14.01,2013-08-04 13:30:00,
2013-08-04 09:35:00,73.8,59.5,29.99,NNW,347,7.0,7.0,61,0.00,,---,0.01,VWS V14.01,2013-08-04 13:35:00,
2013-08-04 09:40:00,73.8,57.1,29.99,North,5,3.0,5.0,56,0.00,,---,0.01,VWS V14.01,2013-08-04 13:40:00,
2013-08-04 09:45:00,73.8,57.6,29.99,West,265,3.0,7.0,57,0.00,,---,0.01,VWS V14.01,2013-08-04 13:45:00,
2013-08-04 09:49:00,73.7,55.5,29.99,North,5,7.0,13.0,53,0.00,,---,0.01,VWS V14.01,2013-08-04 13:49:00,
2013-08-04 09:50:00,73.1,59.8,29.99,NNW,344,2.0,5.0,63,0.00,,---,0.01,VWS V14.01,2013-08-04 13:50:00,
2013-08-04 09:55:00,73.7,58.0,29.99,NNW,336,2.0,9.0,58,0.00,,---,0.01,VWS V14.01,2013-08-04 13:55:00,
2013-08-04 10:00:00,73.8,56.6,29.99,North,360,4.0,6.0,55,0.00,,---,0.01,VWS V14.01,2013-08-04 14:00:00,
2013-08-04 10:04:00,73.8,57.1,29.99,NNW,340,6.0,13.0,56,0.00,,---,0.01,VWS V14.01,2013-08-04 14:04:00,
2013-08-04 10:05:00,73.3,58.6,29.99,WNW,303,3.0,9.0,60,0.00,,---,0.01,VWS V14.01,2013-08-04 14:05:00,
2013-08-04 10:09:00,73.8,56.6,29.99,NW,324,1.0,7.0,55,0.00,,---,0.01,VWS V14.01,2013-08-04 14:09:00,
2013-08-04 10:10:00,73.3,58.1,29.99,WNW,297,3.0,9.0,59,0.00,,---,0.01,VWS V14.01,2013-08-04 14:10:00,
2013-08-04 10:14:00,74.0,56.8,29.99,NNW,337,3.0,6.0,55,0.00,,---,0.01,VWS V14.01,2013-08-04 14:14:00,
2013-08-04 10:15:00,73.7,59.0,29.99,North,5,1.0,4.0,60,0.00,,---,0.01,VWS V14.01,2013-08-04 14:15:00,
2013-08-04 10:19:00,74.0,55.8,29.99,NNE,27,5.0,10.0,53,0.00,,---,0.01,VWS V14.01,2013-08-04 14:19:00,
2013-08-04 10:20:00,73.8,58.1,29.99,NNW,331,4.0,9.0,58,0.00,,---,0.01,VWS V14.01,2013-08-04 14:20:00,
2013-08-04 10:24:00,74.2,57.5,29.99,North,355,7.0,10.0,56,0.00,,---,0.01,VWS V14.01,2013-08-04 14:24:00,
2013-08-04 10:25:00,73.8,57.1,29.99,NNE,30,2.0,9.0,56,0.00,,---,0.01,VWS V14.01,2013-08-04 14:25:00,
2013-08-04 10:29:00,74.4,56.7,29.99,WNW,294,9.0,12.0,54,0.00,,---,0.01,VWS V14.01,2013-08-04 14:29:00,
2013-08-04 10:30:00,73.8,55.6,29.99,NNW,347,13.0,17.0,53,0.00,,---,0.01,VWS V14.01,2013-08-04 14:30:00,
2013-08-04 10:34:00,74.5,57.3,30.00,North,355,5.0,11.0,55,0.00,,---,0.01,VWS V14.01,2013-08-04 14:34:00,
2013-08-04 10:35:00,73.7,57.5,29.99,NW,306,2.0,15.0,57,0.00,,---,0.01,VWS V14.01,2013-08-04 14:35:00,
2013-08-04 10:39:00,74.5,55.2,30.00,North,351,12.0,15.0,51,0.00,,---,0.01,VWS V14.01,2013-08-04 14:39:00,
2013-08-04 10:40:00,73.8,57.6,29.99,NNW,346,6.0,12.0,57,0.00,,---,0.01,VWS V14.01,2013-08-04 14:40:00,
2013-08-04 10:44:00,74.5,55.2,30.00,NNW,348,8.0,16.0,51,0.00,,---,0.01,VWS V14.01,2013-08-04 14:44:00,
2013-08-04 10:45:00,73.8,56.6,29.99,North,349,6.0,14.0,55,0.00,,---,0.01,VWS V14.01,2013-08-04 14:45:00,
2013-08-04 10:49:00,74.4,55.1,30.00,NNE,19,13.0,17.0,51,0.00,,---,0.01,VWS V14.01,2013-08-04 14:49:00,
2013-08-04 10:50:00,73.8,56.6,29.99,North,355,7.0,14.0,55,0.00,,---,0.01,VWS V14.01,2013-08-04 14:50:00,
2013-08-04 10:54:00,74.2,55.5,30.00,NNE,17,13.0,18.0,52,0.00,,---,0.01,VWS V14.01,2013-08-04 14:54:00,
2013-08-04 10:55:00,73.8,57.6,29.99,NNE,21,4.0,10.0,57,0.00,,---,0.01,VWS V14.01,2013-08-04 14:55:00,
2013-08-04 10:59:00,74.4,55.7,30.00,NNE,17,10.0,15.0,52,0.00,,---,0.01,VWS V14.01,2013-08-04 14:59:00,
2013-08-04 11:00:00,74.0,55.8,29.99,NNW,346,6.0,16.0,53,0.00,,---,0.01,VWS V14.01,2013-08-04 15:00:00,
2013-08-04 11:04:00,74.5,56.8,30.01,NNE,14,4.0,10.0,54,0.00,,---,0.01,VWS V14.01,2013-08-04 15:04:00,
2013-08-04 11:05:00,74.2,57.5,29.99,NW,322,7.0,11.0,56,0.00,,---,0.01,VWS V14.01,2013-08-04 15:05:00,
2013-08-04 11:09:00,74.7,55.9,30.01,NNW,341,11.0,11.0,52,0.00,,---,0.01,VWS V14.01,2013-08-04 15:09:00,
2013-08-04 11:10:00,74.4,57.2,29.99,NNE,15,10.0,11.0,55,0.00,,---,0.01,VWS V14.01,2013-08-04 15:10:00,
2013-08-04 11:14:00,74.9,56.6,30.01,NNE,30,10.0,10.0,53,0.00,,---,0.01,VWS V14.01,2013-08-04 15:14:00,
2013-08-04 11:15:00,74.5,56.8,30.00,NNE,17,7.0,12.0,54,0.00,,---,0.01,VWS V14.01,2013-08-04 15:15:00,
2013-08-04 11:19:00,75.4,57.6,30.01,NNW,340,3.0,4.0,54,0.00,,---,0.01,VWS V14.01,2013-08-04 15:19:00,
2013-08-04 11:20:00,74.5,55.2,30.00,NNW,346,6.0,12.0,51,0.00,,---,0.01,VWS V14.01,2013-08-04 15:20:00,
2013-08-04 11:24:00,75.6,56.8,30.01,NNW,331,12.0,12.0,52,0.00,,---,0.01,VWS V14.01,2013-08-04 15:24:00,
2013-08-04 11:25:00,74.5,55.2,30.00,NNW,344,7.0,15.0,51,0.00,,---,0.01,VWS V14.01,2013-08-04 15:25:00,
2013-08-04 11:29:00,75.6,55.7,30.01,NNE,24,6.0,10.0,50,0.00,,---,0.01,VWS V14.01,2013-08-04 15:29:00,
2013-08-04 11:30:00,74.4,55.1,30.00,North,5,5.0,18.0,51,0.00,,---,0.01,VWS V14.01,2013-08-04 15:30:00,
2013-08-04 11:34:00,75.4,55.5,30.00,NNW,346,10.0,10.0,50,0.00,,---,0.01,VWS V14.01,2013-08-04 15:34:00,
2013-08-04 11:35:00,74.2,54.9,30.00,NNE,15,15.0,18.0,51,0.00,,---,0.01,VWS V14.01,2013-08-04 15:35:00,
2013-08-04 11:39:00,75.4,56.0,30.00,NW,311,5.0,13.0,51,0.00,,---,0.01,VWS V14.01,2013-08-04 15:39:00,
2013-08-04 11:40:00,74.4,55.1,30.00,North,5,11.0,18.0,51,0.00,,---,0.01,VWS V14.01,2013-08-04 15:40:00,
2013-08-04 11:44:00,75.6,56.2,30.00,NW,306,1.0,4.0,51,0.00,,---,0.01,VWS V14.01,2013-08-04 15:44:00,
2013-08-04 11:45:00,74.5,55.2,30.01,NNE,23,7.0,15.0,51,0.00,,---,0.01,VWS V14.01,2013-08-04 15:45:00,
2013-08-04 11:49:00,75.9,56.0,30.00,West,272,5.0,9.0,50,0.00,,---,0.01,VWS V14.01,2013-08-04 15:49:00,
2013-08-04 11:50:00,74.7,56.5,30.01,NNW,348,11.0,12.0,53,0.00,,---,0.01,VWS V14.01,2013-08-04 15:50:00,
2013-08-04 11:54:00,76.1,56.1,30.00,WNW,290,9.0,21.0,50,0.00,,---,0.01,VWS V14.01,2013-08-04 15:54:00,
2013-08-04 11:55:00,74.9,56.6,30.01,NE,52,10.0,11.0,53,0.00,,---,0.01,VWS V14.01,2013-08-04 15:55:00,
2013-08-04 11:59:00,76.1,56.7,30.00,WNW,296,11.0,11.0,51,0.00,,---,0.01,VWS V14.01,2013-08-04 15:59:00,
2013-08-04 12:00:00,75.2,57.9,30.01,NNE,28,4.0,10.0,55,0.00,,---,0.01,VWS V14.01,2013-08-04 16:00:00,
2013-08-04 12:04:00,75.9,56.0,30.00,NNW,336,10.0,10.0,50,0.00,,---,0.01,VWS V14.01,2013-08-04 16:04:00,
2013-08-04 12:05:00,75.6,56.2,30.01,NNW,340,4.0,11.0,51,0.00,,---,0.01,VWS V14.01,2013-08-04 16:05:00,
2013-08-04 12:09:00,76.1,56.1,30.00,WNW,294,5.0,10.0,50,0.00,,---,0.01,VWS V14.01,2013-08-04 16:09:00,
2013-08-04 12:10:00,75.6,55.7,30.01,WNW,288,6.0,13.0,50,0.00,,---,0.01,VWS V14.01,2013-08-04 16:10:00,
2013-08-04 12:14:00,76.7,57.2,30.00,North,5,7.0,10.0,51,0.00,,---,0.01,VWS V14.01,2013-08-04 16:14:00,
2013-08-04 12:15:00,75.6,55.7,30.00,North,5,6.0,17.0,50,0.00,,---,0.01,VWS V14.01,2013-08-04 16:15:00,
2013-08-04 12:19:00,76.8,56.8,30.00,WNW,302,12.0,13.0,50,0.00,,---,0.01,VWS V14.01,2013-08-04 16:19:00,
2013-08-04 12:20:00,75.4,55.5,30.00,WNW,292,13.0,13.0,50,0.00,,---,0.01,VWS V14.01,2013-08-04 16:20:00,
2013-08-04 12:24:00,76.8,56.2,30.00,NNW,336,8.0,11.0,49,0.00,,---,0.01,VWS V14.01,2013-08-04 16:24:00,
2013-08-04 12:25:00,75.6,56.2,30.00,West,268,4.0,17.0,51,0.00,,---,0.01,VWS V14.01,2013-08-04 16:25:00,
2013-08-04 12:29:00,76.7,56.7,30.00,NNW,336,5.0,7.0,50,0.00,,---,0.01,VWS V14.01,2013-08-04 16:29:00,
2013-08-04 12:30:00,75.9,55.4,30.00,NNW,338,5.0,16.0,49,0.00,,---,0.01,VWS V14.01,2013-08-04 16:30:00,
2013-08-04 12:34:00,76.8,56.8,30.00,NNE,15,4.0,4.0,50,0.00,,---,0.01,VWS V14.01,2013-08-04 16:34:00,
2013-08-04 12:35:00,76.1,56.1,30.00,WSW,252,5.0,14.0,50,0.00,,---,0.01,VWS V14.01,2013-08-04 16:35:00,
2013-08-04 12:39:00,77.2,56.0,30.00,NNE,25,6.0,10.0,48,0.00,,---,0.01,VWS V14.01,2013-08-04 16:39:00,
2013-08-04 12:40:00,76.1,56.1,30.00,North,350,4.0,21.0,50,0.00,,---,0.01,VWS V14.01,2013-08-04 16:40:00,
2013-08-04 12:44:00,77.4,56.2,30.00,NNE,24,9.0,11.0,48,0.00,,---,0.01,VWS V14.01,2013-08-04 16:44:00,
2013-08-04 12:45:00,75.9,56.0,30.00,NNW,341,3.0,15.0,50,0.00,,---,0.01,VWS V14.01,2013-08-04 16:45:00,
2013-08-04 12:49:00,77.6,57.5,29.99,NNE,13,4.0,10.0,50,0.00,,---,0.01,VWS V14.01,2013-08-04 16:49:00,
2013-08-04 12:50:00,76.1,56.1,30.00,North,355,2.0,16.0,50,0.00,,---,0.01,VWS V14.01,2013-08-04 16:50:00,
2013-08-04 12:54:00,77.9,54.9,29.99,North,355,6.0,13.0,45,0.00,,---,0.01,VWS V14.01,2013-08-04 16:54:00,
2013-08-04 12:55:00,76.5,56.5,30.00,NNE,18,8.0,11.0,50,0.00,,---,0.01,VWS V14.01,2013-08-04 16:55:00,
2013-08-04 12:59:00,77.9,56.7,29.99,NNE,30,3.0,13.0,48,0.00,,---,0.01,VWS V14.01,2013-08-04 16:59:00,
2013-08-04 13:00:00,76.8,56.8,30.00,WNW,285,11.0,14.0,50,0.00,,---,0.01,VWS V14.01,2013-08-04 17:00:00,
2013-08-04 13:04:00,77.4,56.2,29.99,NW,308,8.0,8.0,48,0.00,,---,0.01,VWS V14.01,2013-08-04 17:04:00,
2013-08-04 13:05:00,76.8,56.2,30.00,NW,325,5.0,13.0,49,0.00,,---,0.01,VWS V14.01,2013-08-04 17:05:00,
2013-08-04 13:09:00,77.6,57.0,29.99,North,11,1.0,4.0,49,0.00,,---,0.01,VWS V14.01,2013-08-04 17:09:00,
2013-08-04 13:10:00,76.7,56.7,30.00,WNW,303,5.0,11.0,50,0.00,,---,0.01,VWS V14.01,2013-08-04 17:10:00,
2013-08-04 13:14:00,77.9,54.9,29.99,North,350,1.0,3.0,45,0.00,,---,0.01,VWS V14.01,2013-08-04 17:14:00,
2013-08-04 13:15:00,76.8,56.8,30.00,NNE,15,4.0,15.0,50,0.00,,---,0.01,VWS V14.01,2013-08-04 17:15:00,
2013-08-04 13:19:00,78.3,55.8,29.99,NNW,327,7.0,10.0,46,0.00,,---,0.01,VWS V14.01,2013-08-04 17:19:00,
2013-08-04 13:20:00,77.2,56.0,30.00,NNE,28,9.0,13.0,48,0.00,,---,0.01,VWS V14.01,2013-08-04 17:20:00,
2013-08-04 13:24:00,78.7,56.2,29.99,NNW,341,9.0,11.0,46,0.00,,---,0.01,VWS V14.01,2013-08-04 17:24:00,
2013-08-04 13:25:00,77.4,56.2,30.00,NNE,14,6.0,10.0,48,0.00,,---,0.01,VWS V14.01,2013-08-04 17:25:00,
2013-08-04 13:29:00,79.0,57.7,29.99,WNW,282,3.0,6.0,48,0.00,,---,0.01,VWS V14.01,2013-08-04 17:29:00,
2013-08-04 13:30:00,77.4,57.9,29.99,NE,36,6.0,11.0,51,0.00,,---,0.01,VWS V14.01,2013-08-04 17:30:00,
2013-08-04 13:34:00,79.2,54.8,29.99,North,355,4.0,4.0,43,0.00,,---,0.01,VWS V14.01,2013-08-04 17:34:00,
2013-08-04 13:35:00,77.9,56.1,29.99,NNW,327,13.0,13.0,47,0.00,,---,0.01,VWS V14.01,2013-08-04 17:35:00,
2013-08-04 13:39:00,79.2,56.0,29.99,NNW,332,5.0,11.0,45,0.00,,---,0.01,VWS V14.01,2013-08-04 17:39:00,
2013-08-04 13:40:00,77.9,56.7,29.99,North,360,13.0,13.0,48,0.00,,---,0.01,VWS V14.01,2013-08-04 17:40:00,
2013-08-04 13:44:00,79.2,55.4,29.99,NW,311,3.0,9.0,44,0.00,,---,0.01,VWS V14.01,2013-08-04 17:44:00,
2013-08-04 13:45:00,77.4,56.2,29.99,NNW,332,7.0,13.0,48,0.00,,---,0.01,VWS V14.01,2013-08-04 17:45:00,
2013-08-04 13:49:00,79.4,56.2,29.98,North,350,5.0,5.0,45,0.00,,---,0.01,VWS V14.01,2013-08-04 17:49:00,
2013-08-04 13:50:00,77.4,56.8,29.99,West,281,4.0,8.0,49,0.00,,---,0.01,VWS V14.01,2013-08-04 17:50:00,
2013-08-04 13:54:00,79.6,56.4,29.98,NW,311,1.0,3.0,45,0.00,,---,0.01,VWS V14.01,2013-08-04 17:54:00,
2013-08-04 13:55:00,77.9,54.9,29.99,North,350,3.0,9.0,45,0.00,,---,0.01,VWS V14.01,2013-08-04 17:55:00,
2013-08-04 13:59:00,79.8,55.3,29.98,North,5,0.0,2.0,43,0.00,,---,0.01,VWS V14.01,2013-08-04 17:59:00,
2013-08-04 14:00:00,78.3,55.8,29.99,North,9,9.0,12.0,46,0.00,,---,0.01,VWS V14.01,2013-08-04 18:00:00,
2013-08-04 14:04:00,80.2,57.6,29.98,North,5,10.0,10.0,46,0.00,,---,0.01,VWS V14.01,2013-08-04 18:04:00,
2013-08-04 14:05:00,78.7,55.6,29.99,NW,314,4.0,10.0,45,0.00,,---,0.01,VWS V14.01,2013-08-04 18:05:00,
2013-08-04 14:09:00,79.2,56.0,29.98,NE,34,2.0,3.0,45,0.00,,---,0.01,VWS V14.01,2013-08-04 18:09:00,
2013-08-04 14:10:00,79.0,55.2,29.99,NW,306,2.0,11.0,44,0.00,,---,0.01,VWS V14.01,2013-08-04 18:10:00,
2013-08-04 14:14:00,78.9,56.4,29.98,NNE,19,10.0,10.0,46,0.00,,---,0.01,VWS V14.01,2013-08-04 18:14:00,
2013-08-04 14:15:00,79.2,54.8,29.99,NNW,332,2.0,11.0,43,0.00,,---,0.01,VWS V14.01,2013-08-04 18:15:00,
2013-08-04 14:19:00,78.1,54.4,29.98,NE,49,2.0,2.0,44,0.00,,---,0.01,VWS V14.01,2013-08-04 18:19:00,
2013-08-04 14:20:00,79.2,56.0,29.99,WNW,284,11.0,12.0,45,0.00,,---,0.01,VWS V14.01,2013-08-04 18:20:00,
2013-08-04 14:24:00,77.9,56.7,29.98,WSW,240,4.0,4.0,48,0.00,,---,0.01,VWS V14.01,2013-08-04 18:24:00,
2013-08-04 14:25:00,79.2,55.4,29.99,WNW,300,4.0,12.0,44,0.00,,---,0.01,VWS V14.01,2013-08-04 18:25:00,
2013-08-04 14:29:00,78.3,58.2,29.98,WSW,240,9.0,9.0,50,0.00,,---,0.01,VWS V14.01,2013-08-04 18:29:00,
2013-08-04 14:30:00,79.4,56.2,29.98,North,350,5.0,11.0,45,0.00,,---,0.01,VWS V14.01,2013-08-04 18:30:00,
2013-08-04 14:34:00,78.7,57.4,29.97,WNW,292,3.0,5.0,48,0.00,,---,0.01,VWS V14.01,2013-08-04 18:34:00,
2013-08-04 14:35:00,79.4,56.2,29.98,NW,309,3.0,10.0,45,0.00,,---,0.01,VWS V14.01,2013-08-04 18:35:00,
2013-08-04 14:39:00,79.0,57.1,29.97,WNW,293,3.0,5.0,47,0.00,,---,0.01,VWS V14.01,2013-08-04 18:39:00,
2013-08-04 14:40:00,79.8,56.0,29.98,North,9,2.0,10.0,44,0.00,,---,0.01,VWS V14.01,2013-08-04 18:40:00,
2013-08-04 14:44:00,79.4,58.6,29.97,NW,316,6.0,6.0,49,0.00,,---,0.01,VWS V14.01,2013-08-04 18:44:00,
2013-08-04 14:45:00,80.2,57.6,29.98,NNE,24,10.0,10.0,46,0.00,,---,0.01,VWS V14.01,2013-08-04 18:45:00,
2013-08-04 14:48:00,80.0,56.2,29.97,West,262,4.0,5.0,44,0.00,,---,0.01,VWS V14.01,2013-08-04 18:48:00,
2013-08-04 14:50:00,79.2,56.0,29.98,NE,34,2.0,10.0,45,0.00,,---,0.01,VWS V14.01,2013-08-04 18:50:00,
2013-08-04 14:53:00,80.5,57.8,29.97,NNE,16,2.0,2.0,46,0.00,,---,0.01,VWS V14.01,2013-08-04 18:53:00,
2013-08-04 14:55:00,78.9,56.4,29.98,NNE,22,3.0,9.0,46,0.00,,---,0.01,VWS V14.01,2013-08-04 18:55:00,
2013-08-04 14:59:00,80.3,55.8,29.97,ENE,64,11.0,11.0,43,0.00,,---,0.01,VWS V14.01,2013-08-04 18:59:00,
2013-08-04 15:00:00,78.1,54.4,29.98,NE,49,2.0,12.0,44,0.00,,---,0.01,VWS V14.01,2013-08-04 19:00:00,
2013-08-04 15:04:00,80.2,59.3,29.97,WNW,298,0.0,2.0,49,0.00,,---,0.01,VWS V14.01,2013-08-04 19:04:00,
2013-08-04 15:05:00,77.9,56.7,29.98,North,5,1.0,10.0,48,0.00,,---,0.01,VWS V14.01,2013-08-04 19:05:00,
2013-08-04 15:08:00,80.0,57.4,29.97,West,277,3.0,5.0,46,0.00,,---,0.01,VWS V14.01,2013-08-04 19:08:00,
2013-08-04 15:10:00,78.3,57.6,29.98,WSW,257,4.0,11.0,49,0.00,,---,0.01,VWS V14.01,2013-08-04 19:10:00,
2013-08-04 15:13:00,79.6,57.0,29.97,NW,318,8.0,10.0,46,0.00,,---,0.01,VWS V14.01,2013-08-04 19:13:00,
2013-08-04 15:15:00,78.5,56.0,29.97,WNW,292,5.0,12.0,46,0.00,,---,0.01,VWS V14.01,2013-08-04 19:15:00,
2013-08-04 15:18:00,79.4,56.2,29.97,North,360,9.0,9.0,45,0.00,,---,0.01,VWS V14.01,2013-08-04 19:18:00,
2013-08-04 15:20:00,79.0,57.1,29.97,WNW,297,4.0,7.0,47,0.00,,---,0.01,VWS V14.01,2013-08-04 19:20:00,
2013-08-04 15:24:00,78.9,57.0,29.97,North,360,5.0,5.0,47,0.00,,---,0.01,VWS V14.01,2013-08-04 19:24:00,
2013-08-04 15:25:00,79.4,58.6,29.97,NNE,22,2.0,12.0,49,0.00,,---,0.01,VWS V14.01,2013-08-04 19:25:00,
2013-08-04 15:29:00,78.3,55.2,29.97,North,5,9.0,9.0,45,0.00,,---,0.01,VWS V14.01,2013-08-04 19:29:00,
2013-08-04 15:30:00,80.0,56.2,29.97,West,263,4.0,6.0,44,0.00,,---,0.01,VWS V14.01,2013-08-04 19:30:00,
2013-08-04 15:34:00,78.1,55.7,29.97,NNW,336,5.0,5.0,46,0.00,,---,0.01,VWS V14.01,2013-08-04 19:34:00,
2013-08-04 15:35:00,80.5,57.8,29.97,West,259,0.0,5.0,46,0.00,,---,0.01,VWS V14.01,2013-08-04 19:35:00,
2013-08-04 15:39:00,78.3,56.4,29.97,North,360,7.0,9.0,47,0.00,,---,0.01,VWS V14.01,2013-08-04 19:39:00,
2013-08-04 15:40:00,80.3,55.8,29.97,ENE,64,11.0,11.0,43,0.00,,---,0.01,VWS V14.01,2013-08-04 19:40:00,
2013-08-04 15:44:00,78.5,56.6,29.97,NNE,23,4.0,11.0,47,0.00,,---,0.01,VWS V14.01,2013-08-04 19:44:00,
2013-08-04 15:45:00,80.2,59.3,29.97,WNW,298,2.0,14.0,49,0.00,,---,0.01,VWS V14.01,2013-08-04 19:45:00,
2013-08-04 15:49:00,78.7,56.2,29.97,North,350,6.0,10.0,46,0.00,,---,0.01,VWS V14.01,2013-08-04 19:49:00,
2013-08-04 15:50:00,80.0,57.4,29.97,West,268,5.0,7.0,46,0.00,,---,0.01,VWS V14.01,2013-08-04 19:50:00,
2013-08-04 15:54:00,79.0,56.5,29.97,NW,326,8.0,8.0,46,0.00,,---,0.01,VWS V14.01,2013-08-04 19:54:00,
2013-08-04 15:55:00,79.6,57.0,29.97,NW,323,6.0,13.0,46,0.00,,---,0.01,VWS V14.01,2013-08-04 19:55:00,
2013-08-04 15:59:00,79.0,56.5,29.97,WNW,300,2.0,14.0,46,0.00,,---,0.01,VWS V14.01,2013-08-04 19:59:00,
2013-08-04 16:00:00,79.4,56.2,29.97,WNW,290,5.0,11.0,45,0.00,,---,0.01,VWS V14.01,2013-08-04 20:00:00,
2013-08-04 16:04:00,79.4,55.6,29.97,ENE,61,10.0,11.0,44,0.00,,---,0.01,VWS V14.01,2013-08-04 20:04:00,
2013-08-04 16:05:00,78.9,57.0,29.97,NNW,338,4.0,10.0,47,0.00,,---,0.01,VWS V14.01,2013-08-04 20:05:00,
2013-08-04 16:09:00,79.0,54.6,29.97,NE,54,10.0,17.0,43,0.00,,---,0.01,VWS V14.01,2013-08-04 20:09:00,
2013-08-04 16:10:00,78.3,55.2,29.97,NNW,347,7.0,13.0,45,0.00,,---,0.01,VWS V14.01,2013-08-04 20:10:00,
2013-08-04 16:14:00,79.0,54.6,29.97,NW,319,7.0,14.0,43,0.00,,---,0.01,VWS V14.01,2013-08-04 20:14:00,
2013-08-04 16:15:00,78.1,55.7,29.97,NW,313,5.0,14.0,46,0.00,,---,0.01,VWS V14.01,2013-08-04 20:15:00,
2013-08-04 16:19:00,79.4,56.2,29.97,NNW,343,9.0,11.0,45,0.00,,---,0.01,VWS V14.01,2013-08-04 20:19:00,
2013-08-04 16:20:00,78.3,56.4,29.97,North,360,9.0,13.0,47,0.00,,---,0.01,VWS V14.01,2013-08-04 20:20:00,
2013-08-04 16:23:00,79.2,54.2,29.97,NNE,29,4.0,17.0,42,0.00,,---,0.01,VWS V14.01,2013-08-04 20:23:00,
2013-08-04 16:25:00,78.5,56.6,29.97,NNE,23,4.0,11.0,47,0.00,,---,0.01,VWS V14.01,2013-08-04 20:25:00,
2013-08-04 16:29:00,78.7,55.0,29.97,NW,311,12.0,14.0,44,0.00,,---,0.01,VWS V14.01,2013-08-04 20:29:00,
2013-08-04 16:30:00,78.7,56.2,29.97,North,350,6.0,10.0,46,0.00,,---,0.01,VWS V14.01,2013-08-04 20:30:00,
2013-08-04 16:33:00,78.5,55.4,29.97,NNW,332,10.0,15.0,45,0.00,,---,0.01,VWS V14.01,2013-08-04 20:33:00,
2013-08-04 16:35:00,79.0,56.5,29.97,NW,311,7.0,13.0,46,0.00,,---,0.01,VWS V14.01,2013-08-04 20:35:00,
2013-08-04 16:38:00,78.9,55.8,29.97,NW,311,11.0,14.0,45,0.00,,---,0.01,VWS V14.01,2013-08-04 20:38:00,
2013-08-04 16:40:00,79.0,56.5,29.97,WNW,300,2.0,14.0,46,0.00,,---,0.01,VWS V14.01,2013-08-04 20:40:00,
2013-08-04 16:44:00,79.2,56.0,29.97,WNW,289,4.0,13.0,45,0.00,,---,0.01,VWS V14.01,2013-08-04 20:44:00,
2013-08-04 16:45:00,79.4,55.6,29.97,ENE,61,10.0,11.0,44,0.00,,---,0.01,VWS V14.01,2013-08-04 20:45:00,
2013-08-04 16:48:00,78.9,57.0,29.97,NNE,22,10.0,11.0,47,0.00,,---,0.01,VWS V14.01,2013-08-04 20:48:00,
2013-08-04 16:50:00,79.0,54.6,29.97,NE,44,12.0,17.0,43,0.00,,---,0.01,VWS V14.01,2013-08-04 20:50:00,
2013-08-04 16:53:00,77.6,55.2,29.97,North,360,7.0,14.0,46,0.00,,---,0.01,VWS V14.01,2013-08-04 20:53:00,
2013-08-04 16:55:00,79.0,54.6,29.97,NW,319,7.0,14.0,43,0.00,,---,0.01,VWS V14.01,2013-08-04 20:55:00,
2013-08-04 16:58:00,77.4,56.2,29.97,NNE,23,9.0,15.0,48,0.00,,---,0.01,VWS V14.01,2013-08-04 20:58:00,
2013-08-04 17:00:00,79.4,56.2,29.97,NNW,343,9.0,11.0,45,0.00,,---,0.01,VWS V14.01,2013-08-04 21:00:00,
2013-08-04 17:03:00,77.6,55.8,29.97,North,5,0.0,12.0,47,0.00,,---,0.01,VWS V14.01,2013-08-04 21:03:00,
2013-08-04 17:05:00,79.2,54.2,29.97,NE,44,6.0,17.0,42,0.00,,---,0.01,VWS V14.01,2013-08-04 21:05:00,
2013-08-04 17:08:00,77.9,55.5,29.97,WNW,296,2.0,9.0,46,0.00,,---,0.01,VWS V14.01,2013-08-04 21:08:00,
2013-08-04 17:10:00,78.7,55.0,29.97,NW,311,12.0,14.0,44,0.00,,---,0.01,VWS V14.01,2013-08-04 21:10:00,
2013-08-04 17:13:00,78.5,55.4,29.97,NW,326,4.0,8.0,45,0.00,,---,0.01,VWS V14.01,2013-08-04 21:13:00,
2013-08-04 17:15:00,78.5,55.4,29.97,NNW,343,10.0,15.0,45,0.00,,---,0.01,VWS V14.01,2013-08-04 21:15:00,
2013-08-04 17:18:00,78.9,55.8,29.97,North,350,2.0,6.0,45,0.00,,---,0.01,VWS V14.01,2013-08-04 21:18:00,
2013-08-04 17:20:00,78.9,55.8,29.97,West,261,7.0,14.0,45,0.00,,---,0.01,VWS V14.01,2013-08-04 21:20:00,
2013-08-04 17:23:00,79.0,55.9,29.97,NE,36,5.0,9.0,45,0.00,,---,0.01,VWS V14.01,2013-08-04 21:23:00,
2013-08-04 17:25:00,79.2,56.0,29.97,WNW,300,6.0,13.0,45,0.00,,---,0.01,VWS V14.01,2013-08-04 21:25:00,
2013-08-04 17:28:00,78.7,56.8,29.97,NNE,15,3.0,6.0,47,0.00,,---,0.01,VWS V14.01,2013-08-04 21:28:00,
2013-08-04 17:30:00,78.7,56.8,29.97,North,355,10.0,11.0,47,0.00,,---,0.01,VWS V14.01,2013-08-04 21:30:00,
2013-08-04 17:33:00,78.3,56.4,29.97,North,355,1.0,8.0,47,0.00,,---,0.01,VWS V14.01,2013-08-04 21:33:00,
2013-08-04 17:35:00,77.6,55.2,29.97,NE,41,5.0,14.0,46,0.00,,---,0.01,VWS V14.01,2013-08-04 21:35:00,
2013-08-04 17:38:00,78.3,55.2,29.97,NNW,327,5.0,13.0,45,0.00,,---,0.01,VWS V14.01,2013-08-04 21:38:00,
2013-08-04 17:40:00,77.4,56.2,29.97,NNE,33,12.0,15.0,48,0.00,,---,0.01,VWS V14.01,2013-08-04 21:40:00,
2013-08-04 17:43:00,77.9,55.5,29.97,NW,309,5.0,9.0,46,0.00,,---,0.01,VWS V14.01,2013-08-04 21:43:00,
2013-08-04 17:45:00,77.6,55.8,29.97,North,350,0.0,12.0,47,0.00,,---,0.01,VWS V14.01,2013-08-04 21:45:00,
2013-08-04 17:48:00,77.7,57.0,29.97,NW,319,2.0,4.0,49,0.00,,---,0.01,VWS V14.01,2013-08-04 21:48:00,
2013-08-04 17:49:00,77.7,55.9,29.97,NW,319,1.0,1.0,47,0.00,,---,0.01,VWS V14.01,2013-08-04 21:49:00,
2013-08-04 17:50:00,77.9,55.5,29.97,WNW,297,2.0,9.0,46,0.00,,---,0.01,VWS V14.01,2013-08-04 21:50:00,
2013-08-04 17:54:00,77.6,56.4,29.97,NNW,346,5.0,7.0,48,0.00,,---,0.01,VWS V14.01,2013-08-04 21:54:00,
2013-08-04 17:55:00,78.5,56.0,29.97,NW,311,3.0,8.0,46,0.00,,---,0.01,VWS V14.01,2013-08-04 21:55:00,
2013-08-04 17:59:00,77.2,57.1,29.97,North,9,0.0,6.0,50,0.00,,---,0.01,VWS V14.01,2013-08-04 21:59:00,
2013-08-04 18:00:00,78.9,58.1,29.97,NW,310,3.0,6.0,49,0.00,,---,0.01,VWS V14.01,2013-08-04 22:00:00,
2013-08-04 18:04:00,77.2,56.6,29.98,NW,315,2.0,5.0,49,0.00,,---,0.01,VWS V14.01,2013-08-04 22:04:00,
2013-08-04 18:05:00,79.0,55.9,29.97,NE,36,4.0,9.0,45,0.00,,---,0.01,VWS V14.01,2013-08-04 22:05:00,
2013-08-04 18:08:00,77.4,55.6,29.98,NNE,19,3.0,9.0,47,0.00,,---,0.01,VWS V14.01,2013-08-04 22:08:00,
2013-08-04 18:10:00,78.7,56.8,29.97,NNE,26,5.0,7.0,47,0.00,,---,0.01,VWS V14.01,2013-08-04 22:10:00,
2013-08-04 18:14:00,77.6,54.6,29.98,North,360,5.0,10.0,45,0.00,,---,0.01,VWS V14.01,2013-08-04 22:14:00,
2013-08-04 18:15:00,78.3,56.4,29.97,North,355,2.0,8.0,47,0.00,,---,0.01,VWS V14.01,2013-08-04 22:15:00,
2013-08-04 18:18:00,77.6,55.2,29.98,WNW,285,2.0,6.0,46,0.00,,---,0.01,VWS V14.01,2013-08-04 22:18:00,
2013-08-04 18:20:00,78.3,55.2,29.97,NNW,331,3.0,13.0,45,0.00,,---,0.01,VWS V14.01,2013-08-04 22:20:00,
2013-08-04 18:24:00,77.6,55.2,29.98,North,5,3.0,8.0,46,0.00,,---,0.01,VWS V14.01,2013-08-04 22:24:00,
2013-08-04 18:25:00,77.9,55.5,29.97,NW,308,4.0,9.0,46,0.00,,---,0.01,VWS V14.01,2013-08-04 22:25:00,
2013-08-04 18:29:00,77.4,55.6,29.98,NE,34,3.0,6.0,47,0.00,,---,0.01,VWS V14.01,2013-08-04 22:29:00,
2013-08-04 18:30:00,77.7,55.9,29.97,NW,319,0.0,4.0,47,0.00,,---,0.01,VWS V14.01,2013-08-04 22:30:00,
2013-08-04 18:34:00,77.2,54.8,29.99,NE,50,7.0,9.0,46,0.00,,---,0.01,VWS V14.01,2013-08-04 22:34:00,
2013-08-04 18:35:00,77.6,56.4,29.97,NNW,346,5.0,7.0,48,0.00,,---,0.01,VWS V14.01,2013-08-04 22:35:00,
2013-08-04 18:39:00,77.0,54.1,29.99,NNE,29,5.0,7.0,45,0.00,,---,0.01,VWS V14.01,2013-08-04 22:39:00,
2013-08-04 18:40:00,77.2,57.1,29.97,North,9,0.0,6.0,50,0.00,,---,0.01,VWS V14.01,2013-08-04 22:40:00,
2013-08-04 18:44:00,77.2,54.8,29.99,NNE,28,0.0,5.0,46,0.00,,---,0.01,VWS V14.01,2013-08-04 22:44:00,
2013-08-04 18:45:00,77.2,56.6,29.98,NW,315,2.0,5.0,49,0.00,,---,0.01,VWS V14.01,2013-08-04 22:45:00,
2013-08-04 18:49:00,77.2,54.8,29.99,North,355,5.0,5.0,46,0.00,,---,0.01,VWS V14.01,2013-08-04 22:49:00,
2013-08-04 18:50:00,77.4,55.6,29.98,NNE,19,3.0,9.0,47,0.00,,---,0.01,VWS V14.01,2013-08-04 22:50:00,
2013-08-04 18:53:00,77.4,55.6,29.99,North,360,0.0,5.0,47,0.00,,---,0.01,VWS V14.01,2013-08-04 22:53:00,
2013-08-04 18:55:00,77.6,54.6,29.98,North,360,5.0,10.0,45,0.00,,---,0.01,VWS V14.01,2013-08-04 22:55:00,
2013-08-04 18:58:00,77.2,56.6,29.99,North,11,0.0,6.0,49,0.00,,---,0.01,VWS V14.01,2013-08-04 22:58:00,
2013-08-04 19:00:00,77.6,55.2,29.98,WNW,285,2.0,6.0,46,0.00,,---,0.01,VWS V14.01,2013-08-04 23:00:00,
2013-08-04 19:03:00,77.0,55.8,29.99,NNW,348,2.0,4.0,48,0.00,,---,0.01,VWS V14.01,2013-08-04 23:03:00,
2013-08-04 19:05:00,77.6,55.2,29.98,North,5,3.0,8.0,46,0.00,,---,0.01,VWS V14.01,2013-08-04 23:05:00,
2013-08-04 19:08:00,76.7,56.7,29.99,North,360,0.0,5.0,50,0.00,,---,0.01,VWS V14.01,2013-08-04 23:08:00,
2013-08-04 19:10:00,77.4,54.4,29.98,NE,34,5.0,6.0,45,0.00,,---,0.01,VWS V14.01,2013-08-04 23:10:00,
2013-08-04 19:14:00,76.3,54.6,29.99,North,5,1.0,5.0,47,0.00,,---,0.01,VWS V14.01,2013-08-04 23:14:00,
2013-08-04 19:15:00,77.2,54.8,29.99,NE,50,7.0,9.0,46,0.00,,---,0.01,VWS V14.01,2013-08-04 23:15:00,
2013-08-04 19:18:00,76.1,59.3,29.99,North,5,0.0,2.0,56,0.00,,---,0.01,VWS V14.01,2013-08-04 23:18:00,
2013-08-04 19:20:00,77.0,54.1,29.99,NNE,29,4.0,7.0,45,0.00,,---,0.01,VWS V14.01,2013-08-04 23:20:00,
2013-08-04 19:23:00,75.9,59.1,29.99,North,5,1.0,2.0,56,0.00,,---,0.01,VWS V14.01,2013-08-04 23:23:00,
2013-08-04 19:25:00,77.2,54.8,29.99,NNE,28,0.0,5.0,46,0.00,,---,0.01,VWS V14.01,2013-08-04 23:25:00,
2013-08-04 19:28:00,75.1,56.3,29.99,North,5,0.0,3.0,52,0.00,,---,0.01,VWS V14.01,2013-08-04 23:28:00,
2013-08-04 19:30:00,77.2,54.8,29.99,North,355,3.0,5.0,46,0.00,,---,0.01,VWS V14.01,2013-08-04 23:30:00,
2013-08-04 19:33:00,74.4,60.5,29.99,North,360,3.0,4.0,62,0.00,,---,0.01,VWS V14.01,2013-08-04 23:33:00,
2013-08-04 19:35:00,77.4,55.6,29.99,North,9,1.0,5.0,47,0.00,,---,0.01,VWS V14.01,2013-08-04 23:35:00,
2013-08-04 19:38:00,73.3,54.6,29.99,North,360,2.0,10.0,52,0.00,,---,0.01,VWS V14.01,2013-08-04 23:38:00,
2013-08-04 19:40:00,77.2,56.6,29.99,North,11,0.0,6.0,49,0.00,,---,0.01,VWS V14.01,2013-08-04 23:40:00,
2013-08-04 19:43:00,72.6,58.8,29.99,NNW,348,1.0,4.0,62,0.00,,---,0.01,VWS V14.01,2013-08-04 23:43:00,
2013-08-04 19:45:00,77.0,55.8,29.99,NNW,348,2.0,4.0,48,0.00,,---,0.01,VWS V14.01,2013-08-04 23:45:00,
2013-08-04 19:48:00,71.8,58.5,30.00,NNW,342,2.0,5.0,63,0.00,,---,0.01,VWS V14.01,2013-08-04 23:48:00,
2013-08-04 19:50:00,76.7,56.7,29.99,North,360,2.0,5.0,50,0.00,,---,0.01,VWS V14.01,2013-08-04 23:50:00,
2013-08-04 19:53:00,70.9,58.6,30.00,NNW,336,4.0,5.0,65,0.00,,---,0.01,VWS V14.01,2013-08-04 23:53:00,
2013-08-04 19:55:00,76.3,54.6,29.99,North,5,1.0,5.0,47,0.00,,---,0.01,VWS V14.01,2013-08-04 23:55:00,
2013-08-04 19:58:00,69.9,56.3,30.00,NW,320,6.0,6.0,62,0.00,,---,0.01,VWS V14.01,2013-08-04 23:58:00,
2013-08-04 20:00:00,76.1,59.3,29.99,North,5,0.0,2.0,56,0.00,,---,0.01,VWS V14.01,2013-08-05 00:00:00,
2013-08-04 20:03:00,68.9,54.9,30.00,NW,311,4.0,6.0,61,0.00,,---,0.01,VWS V14.01,2013-08-05 00:03:00,
2013-08-04 20:05:00,75.9,59.1,29.99,North,5,2.0,2.0,56,0.00,,---,0.01,VWS V14.01,2013-08-05 00:05:00,
2013-08-04 20:08:00,68.0,55.8,30.00,NW,325,4.0,7.0,65,0.00,,---,0.01,VWS V14.01,2013-08-05 00:08:00,
2013-08-04 20:10:00,75.1,56.3,29.99,North,5,0.0,3.0,52,0.00,,---,0.01,VWS V14.01,2013-08-05 00:10:00,
2013-08-04 20:13:00,67.4,56.9,30.00,NW,321,4.0,6.0,69,0.00,,---,0.01,VWS V14.01,2013-08-05 00:13:00,
2013-08-04 20:15:00,74.4,60.5,29.99,NNW,328,5.0,5.0,62,0.00,,---,0.01,VWS V14.01,2013-08-05 00:15:00,
2013-08-04 20:18:00,66.9,56.4,30.00,NNW,329,3.0,5.0,69,0.00,,---,0.01,VWS V14.01,2013-08-05 00:18:00,
2013-08-04 20:20:00,73.1,54.5,29.99,North,360,2.0,10.0,52,0.00,,---,0.01,VWS V14.01,2013-08-05 00:20:00,
2013-08-04 20:23:00,66.2,56.5,30.00,NNW,336,3.0,5.0,71,0.00,,---,0.01,VWS V14.01,2013-08-05 00:23:00,
2013-08-04 20:25:00,72.4,58.7,29.99,NNW,348,3.0,4.0,62,0.00,,---,0.01,VWS V14.01,2013-08-05 00:25:00,
2013-08-04 20:28:00,65.7,56.0,30.00,NNW,331,4.0,5.0,71,0.00,,---,0.01,VWS V14.01,2013-08-05 00:28:00,
2013-08-04 20:30:00,71.6,58.3,30.00,NNW,342,2.0,5.0,63,0.00,,---,0.01,VWS V14.01,2013-08-05 00:30:00,
2013-08-04 20:33:00,65.2,55.2,30.01,NW,326,3.0,6.0,70,0.00,,---,0.01,VWS V14.01,2013-08-05 00:33:00,
2013-08-04 20:35:00,70.7,58.4,30.00,NNW,336,4.0,5.0,65,0.00,,---,0.01,VWS V14.01,2013-08-05 00:35:00,
2013-08-04 20:38:00,65.1,55.1,30.01,NW,321,4.0,5.0,70,0.00,,---,0.01,VWS V14.01,2013-08-05 00:38:00,
2013-08-04 20:40:00,69.7,56.1,30.00,NW,321,5.0,6.0,62,0.00,,---,0.01,VWS V14.01,2013-08-05 00:40:00,
2013-08-04 20:43:00,65.1,54.7,30.01,NW,313,3.0,7.0,69,0.00,,---,0.01,VWS V14.01,2013-08-05 00:43:00,
2013-08-04 20:45:00,68.9,55.4,30.00,NW,316,6.0,6.0,62,0.00,,---,0.01,VWS V14.01,2013-08-05 00:45:00,
2013-08-04 20:48:00,65.2,54.4,30.01,NW,320,2.0,4.0,68,0.00,,---,0.01,VWS V14.01,2013-08-05 00:48:00,
2013-08-04 20:50:00,68.0,55.8,30.00,NW,325,4.0,7.0,65,0.00,,---,0.01,VWS V14.01,2013-08-05 00:50:00,
2013-08-04 20:53:00,65.1,54.7,30.01,NW,322,2.0,4.0,69,0.00,,---,0.01,VWS V14.01,2013-08-05 00:53:00,
2013-08-04 20:55:00,67.4,56.9,30.00,NW,321,5.0,6.0,69,0.00,,---,0.01,VWS V14.01,2013-08-05 00:55:00,
2013-08-04 20:58:00,64.9,54.1,30.01,NW,306,4.0,6.0,68,0.00,,---,0.01,VWS V14.01,2013-08-05 00:58:00,
2013-08-04 21:00:00,66.7,56.2,30.00,NNW,335,4.0,5.0,69,0.00,,---,0.01,VWS V14.01,2013-08-05 01:00:00,
2013-08-04 21:03:00,64.9,54.5,30.02,NW,305,0.0,4.0,69,0.00,,---,0.01,VWS V14.01,2013-08-05 01:03:00,
2013-08-04 21:05:00,66.2,56.5,30.00,NNW,337,3.0,5.0,71,0.00,,---,0.01,VWS V14.01,2013-08-05 01:05:00,
2013-08-04 21:08:00,64.7,55.1,30.02,NW,305,0.0,2.0,71,0.00,,---,0.01,VWS V14.01,2013-08-05 01:08:00,
2013-08-04 21:10:00,65.5,55.9,30.00,NW,321,5.0,5.0,71,0.00,,---,0.01,VWS V14.01,2013-08-05 01:10:00,
2013-08-04 21:13:00,63.9,55.1,30.02,NNE,29,5.0,6.0,73,0.00,,---,0.01,VWS V14.01,2013-08-05 01:13:00,
2013-08-04 21:15:00,65.2,55.2,30.01,NNW,328,4.0,6.0,70,0.00,,---,0.01,VWS V14.01,2013-08-05 01:15:00,
2013-08-04 21:18:00,63.4,54.6,30.03,North,355,5.0,6.0,73,0.00,,---,0.01,VWS V14.01,2013-08-05 01:18:00,
2013-08-04 21:20:00,65.1,55.1,30.01,NW,306,6.0,6.0,70,0.00,,---,0.01,VWS V14.01,2013-08-05 01:20:00,
2013-08-04 21:23:00,63.3,55.2,30.03,NNW,337,5.0,6.0,75,0.00,,---,0.01,VWS V14.01,2013-08-05 01:23:00,
2013-08-04 21:25:00,65.1,54.7,30.01,NW,313,2.0,7.0,69,0.00,,---,0.01,VWS V14.01,2013-08-05 01:25:00,
2013-08-04 21:28:00,63.0,55.0,30.03,NW,325,5.0,6.0,75,0.00,,---,0.01,VWS V14.01,2013-08-05 01:28:00,
2013-08-04 21:30:00,65.2,54.4,30.01,NW,320,4.0,4.0,68,0.00,,---,0.01,VWS V14.01,2013-08-05 01:30:00,
2013-08-04 21:33:00,62.8,55.1,30.03,NW,324,5.0,6.0,76,0.00,,---,0.01,VWS V14.01,2013-08-05 01:33:00,
2013-08-04 21:35:00,65.1,54.7,30.01,NW,322,3.0,4.0,69,0.00,,---,0.01,VWS V14.01,2013-08-05 01:35:00,
2013-08-04 21:38:00,62.5,54.8,30.03,NW,319,6.0,6.0,76,0.00,,---,0.01,VWS V14.01,2013-08-05 01:38:00,
2013-08-04 21:40:00,64.9,54.1,30.01,NW,305,4.0,6.0,68,0.00,,---,0.01,VWS V14.01,2013-08-05 01:40:00,
2013-08-04 21:43:00,62.3,54.7,30.03,NW,324,4.0,7.0,76,0.00,,---,0.01,VWS V14.01,2013-08-05 01:43:00,
2013-08-04 21:45:00,64.7,54.3,30.02,NW,305,0.0,4.0,69,0.00,,---,0.01,VWS V14.01,2013-08-05 01:45:00,
2013-08-04 21:48:00,62.0,54.4,30.04,NW,311,4.0,6.0,76,0.00,,---,0.01,VWS V14.01,2013-08-05 01:48:00,
2013-08-04 21:50:00,64.6,55.0,30.02,NW,308,2.0,2.0,71,0.00,,---,0.01,VWS V14.01,2013-08-05 01:50:00,
2013-08-04 21:53:00,61.8,54.2,30.04,ENE,59,1.0,5.0,76,0.00,,---,0.01,VWS V14.01,2013-08-05 01:53:00,
2013-08-04 21:55:00,63.8,55.0,30.02,NNE,29,4.0,6.0,73,0.00,,---,0.01,VWS V14.01,2013-08-05 01:55:00,
2013-08-04 21:58:00,61.5,54.2,30.04,NW,305,4.0,5.0,77,0.00,,---,0.01,VWS V14.01,2013-08-05 01:58:00,
2013-08-04 22:00:00,63.4,54.6,30.03,North,355,3.0,6.0,73,0.00,,---,0.01,VWS V14.01,2013-08-05 02:00:00,
2013-08-04 22:03:00,61.4,54.5,30.04,WNW,293,4.0,5.0,78,0.00,,---,0.01,VWS V14.01,2013-08-05 02:03:00,
2013-08-04 22:05:00,63.3,55.2,30.03,NNW,338,5.0,6.0,75,0.00,,---,0.01,VWS V14.01,2013-08-05 02:05:00,
2013-08-04 22:08:00,61.4,54.5,30.04,WNW,296,0.0,3.0,78,0.00,,---,0.01,VWS V14.01,2013-08-05 02:08:00,
2013-08-04 22:10:00,63.0,55.0,30.03,NW,325,5.0,6.0,75,0.00,,---,0.01,VWS V14.01,2013-08-05 02:10:00,
2013-08-04 22:13:00,61.2,54.3,30.04,WNW,296,0.0,3.0,78,0.00,,---,0.01,VWS V14.01,2013-08-05 02:13:00,
2013-08-04 22:15:00,62.6,54.9,30.03,NNW,327,5.0,6.0,76,0.00,,---,0.01,VWS V14.01,2013-08-05 02:15:00,
2013-08-04 22:18:00,61.1,54.5,30.05,WNW,296,3.0,3.0,79,0.00,,---,0.01,VWS V14.01,2013-08-05 02:18:00,
2013-08-04 22:20:00,62.5,55.2,30.03,NNW,327,6.0,6.0,77,0.00,,---,0.01,VWS V14.01,2013-08-05 02:20:00,
2013-08-04 22:23:00,60.9,54.3,30.05,NNW,328,3.0,5.0,79,0.00,,---,0.01,VWS V14.01,2013-08-05 02:23:00,
2013-08-04 22:25:00,62.3,55.0,30.03,NW,324,4.0,7.0,77,0.00,,---,0.01,VWS V14.01,2013-08-05 02:25:00,
2013-08-04 22:28:00,60.9,54.3,30.05,NW,325,2.0,4.0,79,0.00,,---,0.01,VWS V14.01,2013-08-05 02:28:00,
2013-08-04 22:30:00,62.0,54.0,30.04,NW,311,3.0,6.0,75,0.00,,---,0.01,VWS V14.01,2013-08-05 02:30:00,
2013-08-04 22:33:00,60.9,54.0,30.05,NW,320,2.0,4.0,78,0.00,,---,0.01,VWS V14.01,2013-08-05 02:33:00,
2013-08-04 22:35:00,61.8,54.2,30.04,NE,53,2.0,5.0,76,0.00,,---,0.01,VWS V14.01,2013-08-05 02:35:00,
2013-08-04 22:38:00,61.1,53.8,30.05,NW,321,3.0,5.0,77,0.00,,---,0.01,VWS V14.01,2013-08-05 02:38:00,
2013-08-04 22:40:00,61.5,54.2,30.04,NW,305,2.0,5.0,77,0.00,,---,0.01,VWS V14.01,2013-08-05 02:40:00,
2013-08-04 22:43:00,61.2,53.2,30.05,NW,316,3.0,6.0,75,0.00,,---,0.01,VWS V14.01,2013-08-05 02:43:00,
2013-08-04 22:45:00,61.4,54.5,30.04,WNW,293,3.0,5.0,78,0.00,,---,0.01,VWS V14.01,2013-08-05 02:45:00,
2013-08-04 22:48:00,61.5,53.5,30.05,NW,319,5.0,6.0,75,0.00,,---,0.01,VWS V14.01,2013-08-05 02:48:00,
2013-08-04 22:50:00,61.4,54.5,30.04,WNW,296,0.0,3.0,78,0.00,,---,0.01,VWS V14.01,2013-08-05 02:50:00,
2013-08-04 22:53:00,62.0,53.3,30.05,NNW,331,3.0,7.0,73,0.00,,---,0.01,VWS V14.01,2013-08-05 02:53:00,
2013-08-04 22:55:00,61.2,54.6,30.04,WNW,296,0.0,3.0,79,0.00,,---,0.01,VWS V14.01,2013-08-05 02:55:00,
2013-08-04 22:58:00,62.5,54.1,30.05,NW,317,2.0,5.0,74,0.00,,---,0.01,VWS V14.01,2013-08-05 02:58:00,
2013-08-04 23:00:00,61.1,54.5,30.05,WNW,296,1.0,3.0,79,0.00,,---,0.01,VWS V14.01,2013-08-05 03:00:00,
2013-08-04 23:03:00,62.5,54.5,30.05,NW,318,3.0,4.0,75,0.00,,---,0.01,VWS V14.01,2013-08-05 03:03:00,
2013-08-04 23:05:00,60.9,54.3,30.05,NNW,330,2.0,5.0,79,0.00,,---,0.01,VWS V14.01,2013-08-05 03:05:00,
2013-08-04 23:08:00,62.3,54.7,30.05,NNW,331,4.0,6.0,76,0.00,,---,0.01,VWS V14.01,2013-08-05 03:08:00,
2013-08-04 23:10:00,60.9,54.3,30.05,NW,325,2.0,4.0,79,0.00,,---,0.01,VWS V14.01,2013-08-05 03:10:00,
2013-08-04 23:13:00,62.2,54.5,30.05,North,5,3.0,7.0,76,0.00,,---,0.01,VWS V14.01,2013-08-05 03:13:00,
2013-08-04 23:15:00,60.9,54.0,30.05,NW,321,2.0,4.0,78,0.00,,---,0.01,VWS V14.01,2013-08-05 03:15:00,
2013-08-04 23:18:00,62.2,53.8,30.05,NNW,344,2.0,8.0,74,0.00,,---,0.01,VWS V14.01,2013-08-05 03:18:00,
2013-08-04 23:20:00,61.1,53.8,30.05,NW,321,4.0,5.0,77,0.00,,---,0.01,VWS V14.01,2013-08-05 03:20:00,
2013-08-04 23:23:00,62.8,54.0,30.05,NW,316,4.0,6.0,73,0.00,,---,0.01,VWS V14.01,2013-08-05 03:23:00,
2013-08-04 23:25:00,61.2,53.2,30.05,NW,317,4.0,6.0,75,0.00,,---,0.01,VWS V14.01,2013-08-05 03:25:00,
2013-08-04 23:28:00,63.0,54.6,30.05,NW,318,3.0,4.0,74,0.00,,---,0.01,VWS V14.01,2013-08-05 03:28:00,
2013-08-04 23:30:00,61.5,53.5,30.05,NW,323,5.0,6.0,75,0.00,,---,0.01,VWS V14.01,2013-08-05 03:30:00,
2013-08-04 23:33:00,63.0,54.6,30.05,NNW,333,2.0,5.0,74,0.00,,---,0.01,VWS V14.01,2013-08-05 03:33:00,
2013-08-04 23:35:00,62.0,53.3,30.05,NW,320,5.0,7.0,73,0.00,,---,0.01,VWS V14.01,2013-08-05 03:35:00,
2013-08-04 23:38:00,63.0,54.2,30.05,NNW,327,2.0,4.0,73,0.00,,---,0.01,VWS V14.01,2013-08-05 03:38:00,
2013-08-04 23:40:00,62.5,54.1,30.05,NW,317,4.0,5.0,74,0.00,,---,0.01,VWS V14.01,2013-08-05 03:40:00,
2013-08-04 23:43:00,63.0,54.6,30.05,NNW,333,3.0,5.0,74,0.00,,---,0.01,VWS V14.01,2013-08-05 03:43:00,
2013-08-04 23:45:00,62.5,54.5,30.05,NW,318,3.0,4.0,75,0.00,,---,0.01,VWS V14.01,2013-08-05 03:45:00,
2013-08-04 23:48:00,62.8,54.4,30.05,NNW,330,3.0,5.0,74,0.00,,---,0.01,VWS V14.01,2013-08-05 03:48:00,
2013-08-04 23:50:00,62.3,54.7,30.05,NNW,330,6.0,6.0,76,0.00,,---,0.01,VWS V14.01,2013-08-05 03:50:00,
2013-08-04 23:53:00,62.6,54.2,30.05,NW,317,4.0,5.0,74,0.00,,---,0.01,VWS V14.01,2013-08-05 03:53:00,
2013-08-04 23:55:00,62.2,54.9,30.05,North,11,3.0,7.0,77,0.00,,---,0.01,VWS V14.01,2013-08-05 03:55:00,
2013-08-04 23:58:00,62.6,53.8,30.05,NW,319,4.0,6.0,73,0.00,,---,0.01,VWS V14.01,2013-08-05 03:58:00,